K9SCH Weather Reports


Display with metric or nautical units.
time (UTC)temp
F
wind
direction
speed
MPH
gust
MPH
rain 1hr
in
rain 24hr
in
rain mn
in
humidity
%
barometer
mb
20191018231516 79 292 4.0 12.0 0.00 0.00 0.00 19 1009.0
20191018230516 80 270 4.0 9.0 0.00 0.00 0.00 19 1009.0
20191018225516 80 292 5.0 9.0 0.00 0.00 0.00 18 1009.1
20191018224516 80 247 7.0 14.0 0.00 0.00 0.00 19 1009.0
20191018223516 80 270 6.0 11.0 0.00 0.00 0.00 18 1008.9
20191018222516 80 292 6.0 14.0 0.00 0.00 0.00 18 1008.9
20191018221515 80 247 8.0 15.0 0.00 0.00 0.00 18 1008.8
20191018220516 80 247 9.0 16.0 0.00 0.00 0.00 17 1008.8
20191018215515 80 270 6.0 12.0 0.00 0.00 0.00 18 1008.8
20191018214515 80 270 8.0 15.0 0.00 0.00 0.00 17 1009.0
20191018213515 80 270 7.0 11.0 0.00 0.00 0.00 17 1008.7
20191018212515 80 247 8.0 11.0 0.00 0.00 0.00 17 1008.8
20191018211538 80 270 8.0 14.0 0.00 0.00 0.00 17 1008.7
20191018210515 80 270 5.0 14.0 0.00 0.00 0.00 18 1008.7
20191018205515 79 292 6.0 16.0 0.00 0.00 0.00 21 1008.7
20191018204515 79 270 6.0 13.0 0.00 0.00 0.00 22 1008.8
20191018203515 79 247 6.0 12.0 0.00 0.00 0.00 24 1008.7
20191018202515 79 270 5.0 13.0 0.00 0.00 0.00 26 1008.8
20191018201516 79 247 8.0 13.0 0.00 0.00 0.00 27 1008.8
20191018200515 79 270 5.0 9.0 0.00 0.00 0.00 26 1008.9
20191018195516 78 270 5.0 12.0 0.00 0.00 0.00 23 1009.1
20191018194516 78 270 5.0 13.0 0.00 0.00 0.00 25 1009.3
20191018193516 78 270 7.0 14.0 0.00 0.00 0.00 24 1009.4
20191018192516 78 270 4.0 12.0 0.00 0.00 0.00 26 1009.5
20191018191515 78 270 3.0 8.0 0.00 0.00 0.00 28 1009.6
20191018190515 78 270 6.0 11.0 0.00 0.00 0.00 27 1009.7
20191018185515 77 292 4.0 10.0 0.00 0.00 0.00 31 1009.8
20191018184515 77 292 6.0 11.0 0.00 0.00 0.00 34 1009.9
20191018183516 77 292 4.0 9.0 0.00 0.00 0.00 39 1009.7
20191018182517 77 270 4.0 9.0 0.00 0.00 0.00 40 1009.9
20191018181518 77 292 1.0 7.0 0.00 0.00 0.00 40 1009.9
20191018180516 76 247 3.0 7.0 0.00 0.00 0.00 40 1009.8
20191018175519 75 247 4.0 9.0 0.00 0.00 0.00 39 1009.9
20191018174515 75 270 6.0 10.0 0.00 0.00 0.00 41 1009.9
20191018173516 75 247 4.0 11.0 0.00 0.00 0.00 42 1009.9
20191018172515 74 270 4.0 10.0 0.00 0.00 0.00 42 1009.8
20191018171516 75 270 8.0 16.0 0.00 0.00 0.00 42 1010.1
20191018170516 74 247 8.0 15.0 0.00 0.00 0.00 42 1010.0
20191018165515 75 225 4.0 10.0 0.00 0.00 0.00 42 1010.0
20191018164516 74 247 10.0 17.0 0.00 0.00 0.00 43 1009.9
20191018163515 74 247 9.0 15.0 0.00 0.00 0.00 45 1009.8
20191018162515 74 247 9.0 15.0 0.00 0.00 0.00 45 1009.6
20191018161516 73 247 8.0 15.0 0.00 0.00 0.00 44 1009.6
20191018160515 73 247 8.0 16.0 0.00 0.00 0.00 45 1009.5
20191018155515 73 247 8.0 14.0 0.00 0.00 0.00 45 1009.5
20191018154516 72 247 7.0 11.0 0.00 0.00 0.00 46 1009.6
20191018153515 72 247 7.0 12.0 0.00 0.00 0.00 46 1009.5
20191018152515 71 225 6.0 11.0 0.00 0.00 0.00 45 1009.5
20191018151515 71 247 6.0 11.0 0.00 0.00 0.00 45 1009.2
20191018150516 70 247 5.0 9.0 0.00 0.00 0.00 46 1009.3
20191018145515 70 247 4.0 7.0 0.00 0.00 0.00 46 1008.8
20191018144516 69 225 1.0 5.0 0.00 0.00 0.00 47 1008.7
20191018143516 67 202 2.0 4.0 0.00 0.00 0.00 49 1008.3
20191018142515 67 202 2.0 4.0 0.00 0.00 0.00 50 1008.0
20191018141515 66 202 1.0 2.0 0.00 0.00 0.00 51 1008.0
20191018140515 66 0.0 2.0 0.00 0.00 0.00 51 1007.9
20191018135516 66 0.0 3.0 0.00 0.00 0.00 50 1007.8
20191018134515 66 0.0 2.0 0.00 0.00 0.00 49 1007.8
20191018133515 66 0.0 0.0 0.00 0.00 0.00 49 1007.9
20191018132516 66 0.0 0.0 0.00 0.00 0.00 48 1007.6
20191018131516 66 0.0 2.0 0.00 0.00 0.00 48 1007.7
20191018130516 66 0.0 1.0 0.00 0.00 0.00 48 1007.5
20191018125515 67 0.0 0.0 0.00 0.00 0.00 47 1007.5
20191018124515 66 0.0 1.0 0.00 0.00 0.00 47 1007.5
20191018123516 66 0.0 0.0 0.00 0.00 0.00 46 1007.7
20191018122516 66 0.0 0.0 0.00 0.00 0.00 46 1007.5
20191018121516 66 0.0 0.0 0.00 0.00 0.00 46 1007.4
20191018120515 66 0.0 0.0 0.00 0.00 0.00 46 1007.4
20191018115516 65 0.0 2.0 0.00 0.00 0.00 46 1007.2
20191018114518 65 0.0 1.0 0.00 0.00 0.00 45 1007.1
20191018113518 66 0.0 1.0 0.00 0.00 0.00 45 1007.1
20191018112518 66 0.0 1.0 0.00 0.00 0.00 45 1007.1
20191018111517 65 0.0 0.0 0.00 0.00 0.00 46 1007.2
20191018110517 65 0.0 0.0 0.00 0.00 0.00 46 1007.0
20191018105517 64 0.0 1.0 0.00 0.00 0.00 48 1006.9
20191018104517 63 0.0 0.0 0.00 0.00 0.00 47 1006.8
20191018103517 63 0.0 0.0 0.00 0.00 0.00 48 1006.7
20191018102517 63 0.0 0.0 0.00 0.00 0.00 47 1006.8
20191018101518 63 0.0 1.0 0.00 0.00 0.00 47 1006.7
20191018100518 64 0.0 0.0 0.00 0.00 0.00 46 1006.7
20191018095519 65 0.0 0.0 0.00 0.00 0.00 45 1006.8
20191018094517 66 0.0 1.0 0.00 0.00 0.00 44 1006.9
20191018093517 66 0.0 0.0 0.00 0.00 0.00 43 1006.9
20191018092517 67 0.0 0.0 0.00 0.00 0.00 42 1006.7
20191018091517 67 0.0 2.0 0.00 0.00 0.00 42 1006.5
20191018090517 67 0.0 1.0 0.00 0.00 0.00 42 1006.5
20191018085517 67 0.0 2.0 0.00 0.00 0.00 42 1006.5
20191018084517 68 0.0 2.0 0.00 0.00 0.00 41 1006.7
20191018083517 69 135 1.0 4.0 0.00 0.00 0.00 39 1006.8
20191018082518 70 0.0 3.0 0.00 0.00 0.00 38 1006.8
20191018081517 71 0.0 2.0 0.00 0.00 0.00 36 1006.6
20191018080517 72 202 2.0 6.0 0.00 0.00 0.00 35 1006.7
20191018075517 72 202 2.0 5.0 0.00 0.00 0.00 35 1006.8
20191018074517 73 225 1.0 5.0 0.00 0.00 0.00 34 1006.8
20191018073517 74 202 4.0 9.0 0.00 0.00 0.00 33 1006.8
20191018072516 74 202 7.0 13.0 0.00 0.00 0.00 33 1006.7
20191018071517 74 202 7.0 14.0 0.00 0.00 0.00 32 1006.7
20191018070517 75 202 8.0 17.0 0.00 0.00 0.00 32 1006.7
20191018065516 75 202 8.0 14.0 0.00 0.00 0.00 32 1006.6
20191018064516 75 202 9.0 14.0 0.00 0.00 0.00 32 1006.6
20191018063517 74 202 9.0 13.0 0.00 0.00 0.00 32 1006.7
20191018062520 73 202 8.0 16.0 0.00 0.00 0.00 33 1006.6
20191018061520 73 202 2.0 10.0 0.00 0.00 0.00 35 1006.7
20191018060516 73 202 3.0 9.0 0.00 0.00 0.00 35 1006.5
20191018055516 73 225 2.0 6.0 0.00 0.00 0.00 35 1006.4
20191018054519 73 225 4.0 7.0 0.00 0.00 0.00 36 1006.4
20191018053520 73 225 3.0 7.0 0.00 0.00 0.00 36 1006.3
20191018052518 73 225 1.0 4.0 0.00 0.00 0.00 37 1006.4
20191018051517 74 225 1.0 5.0 0.00 0.00 0.00 36 1006.1
20191018050516 75 202 1.0 4.0 0.00 0.00 0.00 36 1006.1
20191018045516 75 247 3.0 11.0 0.00 0.00 0.00 35 1006.1
20191018044516 75 247 2.0 8.0 0.00 0.00 0.00 37 1006.0
20191018043517 74 0.0 2.0 0.00 0.00 0.00 39 1005.9
20191018042516 75 135 1.0 3.0 0.00 0.00 0.00 38 1005.6
20191018041516 75 0.0 1.0 0.00 0.00 0.00 38 1005.6
20191018040516 75 112 1.0 2.0 0.00 0.00 0.00 38 1005.3
20191018035516 76 0.0 2.0 0.00 0.00 0.00 36 1005.2
20191018034516 77 0.0 2.0 0.00 0.00 0.00 36 1005.1
20191018033516 77 247 2.0 6.0 0.00 0.00 0.00 35 1004.8
20191018032516 78 247 3.0 8.0 0.00 0.00 0.00 34 1004.6
20191018031516 78 247 5.0 10.0 0.00 0.00 0.00 33 1004.4
20191018030516 78 247 5.0 10.0 0.00 0.00 0.00 31 1004.2
20191018025521 79 247 3.0 8.0 0.00 0.00 0.00 30 1004.1
20191018024516 80 225 6.0 11.0 0.00 0.00 0.00 29 1003.9
20191018023518 80 247 6.0 12.0 0.00 0.00 0.00 28 1003.6
20191018022521 80 225 4.0 10.0 0.00 0.00 0.00 27 1003.5
20191018021516 81 247 2.0 8.0 0.00 0.00 0.00 26 1003.5
20191018020516 81 225 2.0 7.0 0.00 0.00 0.00 25 1003.6
20191018015516 82 225 5.0 9.0 0.00 0.00 0.00 25 1003.4
20191018014516 83 247 5.0 10.0 0.00 0.00 0.00 24 1003.4
20191018013516 83 225 4.0 10.0 0.00 0.00 0.00 23 1003.4
20191018012517 84 247 8.0 13.0 0.00 0.00 0.00 23 1003.4
20191018011517 85 247 4.0 11.0 0.00 0.00 0.00 23 1003.5
20191018010516 85 247 7.0 12.0 0.00 0.00 0.00 23 1003.5
20191018005516 86 247 7.0 14.0 0.00 0.00 0.00 22 1003.4
20191018004516 87 247 8.0 13.0 0.00 0.00 0.00 21 1003.6
20191018003516 88 247 7.0 13.0 0.00 0.00 0.00 20 1003.7
20191018002518 89 247 11.0 17.0 0.00 0.00 0.00 19 1003.8
20191018001517 89 247 10.0 17.0 0.00 0.00 0.00 19 1003.8
20191018000516 90 247 9.0 16.0 0.00 0.00 0.00 18 1003.9
20191017235516 90 247 11.0 16.0 0.00 0.00 0.00 18 1003.9
20191017234516 90 247 13.0 22.0 0.00 0.00 0.00 19 1004.1
20191017233516 91 247 10.0 18.0 0.00 0.00 0.00 19 1004.1
20191017232520 91 270 11.0 16.0 0.00 0.00 0.00 20 1004.2